THORAD DELTA 1 DEB, 8404

Orbit data source: Space-Track

THORAD DELTA 1 DEB, 8404 is space debris in SSO originally from a launch on Fri, 15 Nov 1974 UTC launched from the Air Force Western Test Range (AFWTR). Debris objects in space refer to the collection of defunct objects orbiting the Earth. Examples of debris include non-operational satellites, rocket bodies, and fragments generated from explosions, collisions, or faulty payload assembly.

Loading next visibility...
Identifier
8404, 1974-089CG
Orbit
SSO
Country
Flag of USUS
Related business
Manufacturer
Unknown
Mission
Spacecraft
Bus & Motor
Unknown
Mass
Unknown
Launch date (UTC)
1974-11-15 (52 years ago)
Launch vehicle
Unknown
Launch site
Air Force Western Test Range (AFWTR)
Object type
Payload
Rocket body
Debris
Shape & HBR
Unknown shape, 0.1 m
Radar Cross Section
Medium (>0.1 m² and <1 m²)

Expand to show TLE details & history
Last TLE update: 1 day ago

TLE from 1 day ago
0 THORAD DELTA 1 DEB
1 08404U 74089CG  26162.83271804  .00001848  00000-0  55532-2 0  9997
2 08404 100.3045 116.2767 0056327 213.4250 204.1231 13.08044079396637
Epoch: 2026-06-11T19:59Z
TLE epoch observation values (Epoch: 2026-06-11T19:59:06.838Z)
Latitude
55.96936°
Longitude
-99.21125°
Altitude
1,279.091 km
Speed
7.203 km/s
True Right ascension
06h 42m 57s
True Declination
55° 49' 14"
Sunlit
Object was in daylight at epoch
Visualization orbit readout
Latitude
Unknown
Longitude
Unknown
Altitude
Unknown
Speed
Unknown
Apparent Right ascension
Unknown
Apparent Declination
Unknown
Sunlit
N/A
Visualization observer readout
Local Sidereal Time
07:49:16
Azimuth
Unknown
Elevation
Unknown
Doppler factor
Unknown
Orbital elements
Apogee altitude
1,270.967 km
Perigee altitude
1,185.28 km
Semi-major axis
7,606.261 km
Eccentricity
0.00563
Inclination
100.3045°
RAAN
116.2767°
Arg. of periapsis
213.425°
True anomaly
203.86099°
Mean anomaly
204.1231°
Eccentric anomaly
203.99188°
Mean motion
3.2718 °/min
Orbital period
110.03 mins
BSTAR
0.0055532
Loading maneuver chart data...
Computing Atmospheric mass density...

Documentation

Showing up to 5 results
|